sat.trackr.live / text

‹ back to catalog

STARLINK-31995

NORAD 59958 · 2024-107P

PAYLOAD ACTIVE UNKNOWN

§ Identity

Operator
Country
US
Launch date
2024-06-05
Launch site
AFETR
Launch vehicle
Mass (kg)
RCS (m²)

Purposes: comms

External: N2YO · Heavens-Above · Gunter

§ Orbital elements

Epoch: 2026-05-25T02:02:09.223008Z

Period
94.11 min
Inclination
53.1604°
Eccentricity
0.0001385
Mean motion
15.30201287 rev/d
Perigee alt
474.3 km
Apogee alt
476.2 km
Semi-major
6,853.3 km
B*
1.5469e-4
RAAN
70.6319°
Arg perigee
103.1300°
Mean anomaly
256.9855°
Rev number
11,029

§ Raw data

STARLINK-319951 59958U 24107P   26145.08482897  .00004225  00000+0  15469-3 0  99942 59958  53.1604  70.6319 0001385 103.1300 256.9855 15.30201287110290

JSON: /api/v1/satellites/59958 · /tle

For live sub-satellite position, see the globe view (requires WebGL).

§ Visibility from observer

Set your observer location to see the next 7 days of passes ≥ 10°. The values pass through the URL so the page stays shareable.

No JS? Fill the form by hand. The geolocation button needs JavaScript.